Change the Weather History Date:

Saturday, February 9, 2013

  Actual Average Record
Temperature  
Mean Temperature 28 °F 31 °F  
Max Temperature 33 °F 39 °F 67 °F (2001)
Min Temperature 23 °F 23 °F 3 °F (2007)
Degree Days  
Heating Degree Days 37 34  
Month to date heating degree days 360 312  
Since 1 July heating degree days 3391 3554  
Cooling Degree Days 0    
Month to date cooling degree days 0  
Year to date cooling degree days 0  
Moisture  
Dew Point 17 °F    
Average Humidity 64    
Maximum Humidity 81    
Minimum Humidity 47    
Precipitation  
Precipitation 0.00 in 0.08 in 0.30 in (1982)
Month to date precipitation 0.41 0.69  
Sea Level Pressure  
Sea Level Pressure 30.36 in    
Wind  
Wind Speed 6 mph (WNW)    
Max Wind Speed 17 mph    
Max Gust Speed 23 mph    
Visibility 10 miles    
Events      
T = Trace of Precipitation, MM = Missing Value Source: NWS Daily Summary

Daily Weather History Graph

Daily Weather History Graph

Search for Another Location

Airport or City:

Trip Planner

Search our weather history database for the weather conditions in past years. The results will help you decide how hot, cold, wet, or windy it might be!

Date:

Astronomy

Feb. 09, 2013 Rise Set
Actual Time 7:22 AM EST 5:51 PM EST
Civil Twilight 6:54 AM EST 6:19 PM EST
Nautical Twilight 6:22 AM EST 6:51 PM EST
Astronomical Twilight 5:50 AM EST 7:23 PM EST
Moon 6:33 AM EST (2/9) 5:32 PM EST (2/9)
Length of Visible Light 11h 25m
Length of Day
10h 28m
Waning Crescent, 0% of the Moon is Illuminated
Feb 9
Waning Crescent
Feb 10
New
Feb 17
First Quarter
Feb 25
Full
Mar 4
Last Quarter

Hourly Weather History & Observations

Time (EST) Temp. Windchill Dew Point Humidity Pressure Visibility Wind Dir Wind Speed Gust Speed Precip Events Conditions
12:53 AM 25.0 °F 13.6 °F 19.0 °F 78% 30.24 in 9.0 mi West 12.7 mph 21.9 mph N/A   Overcast
1:53 AM 25.0 °F 14.8 °F 19.0 °F 78% 30.26 in 9.0 mi WNW 10.4 mph 20.7 mph N/A   Overcast
2:53 AM 25.0 °F 14.2 °F 19.0 °F 78% 30.29 in 9.0 mi WNW 11.5 mph 17.3 mph N/A   Overcast
3:53 AM 25.0 °F 18.1 °F 17.1 °F 72% 30.30 in 10.0 mi WNW 5.8 mph - N/A   Overcast
4:01 AM 24.8 °F 17.9 °F 17.6 °F 74% 30.25 in 10.0 mi West 5.8 mph - N/A   Overcast
4:08 AM 24.8 °F 19.1 °F 19.4 °F 80% 30.25 in 10.0 mi West 4.6 mph - N/A   Overcast
4:53 AM 24.1 °F 17.0 °F 19.0 °F 81% 30.32 in 10.0 mi WNW 5.8 mph - N/A   Overcast
5:53 AM 25.0 °F 18.1 °F 18.0 °F 75% 30.35 in 10.0 mi West 5.8 mph - N/A   Overcast
6:53 AM 24.1 °F 15.2 °F 18.0 °F 77% 30.37 in 10.0 mi WNW 8.1 mph - N/A   Overcast
7:53 AM 24.1 °F 16.0 °F 17.1 °F 75% 30.39 in 10.0 mi NW 6.9 mph - N/A   Overcast
8:53 AM 25.0 °F 19.3 °F 17.1 °F 72% 30.41 in 10.0 mi West 4.6 mph - N/A   Overcast
9:53 AM 25.0 °F 14.8 °F 17.1 °F 72% 30.43 in 10.0 mi WNW 10.4 mph - N/A   Overcast
10:53 AM 26.1 °F 17.6 °F 16.0 °F 66% 30.44 in 10.0 mi WNW 8.1 mph - N/A   Overcast
11:53 AM 28.0 °F 21.7 °F 16.0 °F 61% 30.42 in 10.0 mi WNW 5.8 mph - N/A   Mostly Cloudy
12:01 PM 28.4 °F 20.4 °F 15.8 °F 59% 30.36 in 10.0 mi West 8.1 mph - N/A   Scattered Clouds
12:53 PM 30.0 °F 22.4 °F 16.0 °F 56% 30.40 in 10.0 mi West 8.1 mph - N/A   Clear
1:53 PM 30.9 °F 27.5 °F 16.0 °F 54% 30.39 in 10.0 mi NNW 3.5 mph - N/A   Clear
2:53 PM 33.1 °F 26.9 °F 16.0 °F 50% 30.38 in 10.0 mi Variable 6.9 mph - N/A   Clear
3:53 PM 33.1 °F 27.7 °F 16.0 °F 50% 30.38 in 10.0 mi SW 5.8 mph - N/A   Clear
4:53 PM 32.0 °F 26.4 °F 17.1 °F 54% 30.40 in 10.0 mi SW 5.8 mph - N/A   Clear
5:53 PM 30.0 °F - 15.1 °F 54% 30.38 in 10.0 mi Calm Calm - N/A   Clear
6:53 PM 28.9 °F - 15.1 °F 56% 30.39 in 10.0 mi Calm Calm - N/A   Clear
7:53 PM 27.0 °F - 15.1 °F 61% 30.39 in 10.0 mi Calm Calm - N/A   Clear
8:53 PM 27.0 °F - 15.1 °F 61% 30.40 in 10.0 mi Calm Calm - N/A   Clear
9:53 PM 25.0 °F - 15.1 °F 66% 30.40 in 10.0 mi Calm Calm - N/A   Clear
10:53 PM 23.0 °F 17.0 °F 14.0 °F 68% 30.39 in 10.0 mi East 4.6 mph - N/A   Clear
11:53 PM 24.1 °F 15.2 °F 15.1 °F 69% 30.37 in 10.0 mi East 8.1 mph - N/A   Clear